Printer-friendly version

IAU Minor Planet Center

Minor Planet Center

MPEC 2000-X05: 2000 WJ107

The following Minor Planet Electronic Circular may be linked-to from your own Web pages, but must not otherwise be redistributed electronically.


Read MPEC 2000-X04 Read MPEC 2000-X06


M.P.E.C. 2000-X05                                Issued 2000 Dec. 1, 18:25 UT

     The Minor Planet Electronic Circulars contain information on unusual
         minor planets and routine data on comets.  They are published
   on behalf of Commission 20 of the International Astronomical Union by the
          Minor Planet Center, Smithsonian Astrophysical Observatory,
                          Cambridge, MA 02138, U.S.A.

             Prepared using the Tamkin Foundation Computer Network

                              MPC@CFA.HARVARD.EDU
          URL http://cfa-www.harvard.edu/iau/mpc.html  ISSN 1523-6714

                                  2000 WJ107

Observations:
     K00WA7J* C2000 11 26.25698 03 34 50.64 +08 15 56.9          17.7        704
     K00WA7J  C2000 11 26.27343 03 35 01.91 +08 15 56.9          18.3        704
     K00WA7J  C2000 11 26.29071 03 35 13.80 +08 15 56.7          18.4        704
     K00WA7J  C2000 11 26.30669 03 35 24.73 +08 15 55.1          18.5        704
     K00WA7J  C2000 11 26.32695 03 35 38.57 +08 15 53.9          18.6        704
     K00WA7J  C2000 11 29.29685 04 01 52.70 +08 14 35.9          19.2        704
     K00WA7J  C2000 11 29.31430 04 01 58.63 +08 14 34.0          19.0        704
     K00WA7J  C2000 11 29.33088 04 02 04.28 +08 14 33.3          19.5        704
     K00WA7J  C2000 11 29.34709 04 02 09.82 +08 14 33.0          19.2        704
     K00WA7J  C2000 11 29.53442 04 03 17.05 +08 14 49.8          19.9        608
     K00WA7J  C2000 11 29.54467 04 03 20.48 +08 14 49.1          19.7        608
     K00WA7J  C2000 11 29.55490 04 03 23.91 +08 14 48.4          19.4        608
     K00WA7J  C2000 11 30.28645 04 07 36.23 +08 14 34.8                      711
     K00WA7J  C2000 11 30.29149 04 07 37.61 +08 14 36.0                      711
     K00WA7J  C2000 11 30.29769 04 07 39.45 +08 14 34.6                      711
     K00WA7J  C2000 11 30.43347 04 08 22.06 +08 14 50.9          20.5        608
     K00WA7J  C2000 11 30.44465 04 08 25.03 +08 14 50.7          19.6        608
     K00WA7J  C2000 11 30.45526 04 08 27.94 +08 14 50.7          20.1        608
     K00WA7J  C2000 11 30.95632 04 10 56.60 +08 14 17.5          17.9 R      046
     K00WA7J  C2000 11 30.95841 04 10 57.29 +08 14 16.4                      046
     K00WA7J  C2000 11 30.95980 04 10 57.55 +08 14 16.7                      046
     K00WA7J  C2000 11 30.96110 04 10 57.92 +08 14 16.7                      046
     K00WA7J  C2000 11 30.96242 04 10 58.33 +08 14 16.2                      046
     K00WA7J  C2000 11 30.96369 04 10 58.63 +08 14 15.8          18.0 R      046

Observer details:
046 Klet.  Observers M. Tichy, M. Kocer.  0.57-m f/5.2 reflector + CCD.
608 Haleakala-NEAT/MSSS.  Observers E. F. Helin, S. Pravdo, K. Lawrence,
    P. Kervin, R. Maeda, M. Skinner.  1.2-m reflector + CCD.
704 Lincoln Laboratory ETS, New Mexico.  Observers M. Blythe, F. Shelly,
    M. Bezpalko, M. Elowitz, R. Huber, L. Manguso.  Measurers J. Stuart,
    R. Sayer, J. B. Evans, H. Viggh.  1.0-m f/2.15 reflector + CCD.
711 McDonald Observatory.  Observer J. G. Ries.  0.76-m reflector + CCD.

Orbital elements:
2000 WJ107
Epoch 2000 Nov. 12.0 TT = JDT 2451860.5                 Spahr
M  10.41744              (2000.0)            P               Q
n   0.35676164     Peri.  126.85250     +0.99228525     -0.08630534
a   1.9688711      Node   238.25969     +0.05056344     +0.93721009
e   0.5624142      Incl.    6.00723     +0.11319592     +0.33791810
P   2.76           H   23.4           G   0.15
From 24 observations 2000 Nov. 26-30.

Ephemeris:
2000 WJ107               a,e,i = 1.97, 0.56, 6                   q = 0.8616
Date    TT    R. A. (2000) Decl.     Delta      r     Elong.  Phase     V
2000 11 22    01 46.67   +07 34.9    0.028    1.012   147.4    31.8    17.0
2000 11 27    03 43.26   +08 16.7    0.062    1.047   165.3    13.8    18.2
2000 12 02    04 15.46   +08 15.8    0.100    1.083   165.6    13.1    19.3
2000 12 07    04 29.82   +08 23.4    0.141    1.122   164.5    13.6    20.2
2000 12 12    04 38.03   +08 38.1    0.184    1.161   162.7    14.6    20.9
2000 12 17    04 43.59   +08 57.9    0.228    1.202   160.3    16.0    21.5
2000 12 22    04 47.91   +09 21.7    0.276    1.243   157.4    17.7    22.0

Timothy B. Spahr             (C) Copyright 2000 MPC           M.P.E.C. 2000-X05

Read MPEC 2000-X04 Read MPEC 2000-X06


Our Web policy. Index to the CBAT/MPC/ICQ pages.


Valid HTML 4.01!